FW0099 Weather Reports


time (UTC)temp
C
wind
direction
speed
KPH
gust
KPH
rain 1hr
cm
rain 24hr
cm
rain mn
cm
humidity
%
barometer
mb
20260502231235 13 0.0 0.0 0.00 0.30 0.00 89 1012.1
20260502230216 13 0.0 0.0 0.00 0.30 0.00 89 1012.1
20260502225215 13 0.0 0.0 0.00 0.30 0.00 89 1012.2
20260502224236 13 0.0 0.0 0.00 0.30 0.00 89 1012.2
20260502223215 14 0.0 0.0 0.00 0.30 0.00 89 1012.3
20260502222215 14 0.0 0.0 0.00 0.30 0.00 89 1012.3
20260502221215 14 0.0 0.0 0.00 0.30 0.00 89 1012.6
20260502220215 14 0.0 0.0 0.00 0.30 0.00 89 1012.7
20260502215216 14 0.0 0.0 0.00 0.30 0.30 89 1013.2
20260502214216 14 0.0 0.0 0.00 0.30 0.30 88 1013.5
20260502213215 14 0.0 0.0 0.00 0.30 0.30 88 1013.2
20260502212235 14 0.0 1.6 0.00 0.30 0.30 88 1013.5
20260502211215 14 263 0.0 4.8 0.00 0.30 0.30 88 1013.0
20260502210216 14 0.0 0.0 0.00 0.30 0.30 87 1012.4
20260502205215 15 0.0 0.0 0.00 0.30 0.30 87 1012.3
20260502204216 15 0.0 0.0 0.00 0.30 0.30 87 1012.2
20260502203215 15 0.0 0.0 0.00 0.30 0.30 87 1012.3
20260502202215 15 0.0 0.0 0.15 0.30 0.30 86 1012.3
20260502201215 15 0.0 0.0 0.28 0.28 0.28 86 1012.5
20260502200215 15 0.0 0.0 0.28 0.28 0.28 84 1012.5
20260502195216 15 0.0 0.0 0.28 0.28 0.28 83 1012.4
20260502194215 16 0.0 0.0 0.28 0.28 0.28 82 1012.6
20260502193215 16 0.0 0.0 0.28 0.28 0.28 79 1012.7
20260502192215 17 172 0.0 6.4 0.15 0.15 0.15 74 1013.1
20260502191215 18 171 4.8 12.9 0.00 0.00 0.00 62 1013.2
20260502190215 19 159 4.8 12.9 0.00 0.00 0.00 62 1012.8
20260502185215 20 169 3.2 6.4 0.00 0.00 0.00 54 1012.7
20260502184215 20 120 0.0 4.8 0.00 0.00 0.00 58 1012.6
20260502183215 21 109 0.0 4.8 0.00 0.00 0.00 57 1012.7
20260502182216 21 163 0.0 12.9 0.00 0.00 0.00 52 1012.7
20260502181215 21 0.0 0.0 0.00 0.00 0.00 49 1012.4
20260502180215 22 0.0 0.0 0.00 0.00 0.00 47 1012.4
20260502170215 23 190 0.0 3.2 0.00 0.00 0.00 39 1012.4
20260502164215 23 147 0.0 6.4 0.00 0.00 0.00 40 1012.7
20260502163215 24 213 1.6 8.0 0.00 0.00 0.00 38 1012.9
20260502162215 24 135 0.0 4.8 0.00 0.00 0.00 38 1013.0
20260502161215 23 215 1.6 6.4 0.00 0.00 0.00 40 1013.1
20260502160235 23 274 0.0 3.2 0.00 0.00 0.00 42 1013.2
20260502152217 24 204 0.0 6.4 0.00 0.00 0.00 39 1013.8
20260502151217 24 204 1.6 12.9 0.00 0.00 0.00 36 1013.9
20260502150217 24 167 6.4 14.5 0.00 0.00 0.00 39 1014.1
20260502130217 23 172 4.8 9.7 0.00 0.00 0.00 44 1015.7
20260502123217 23 188 8.0 14.5 0.00 0.00 0.00 44 1016.0
20260502122216 24 251 1.6 4.8 0.00 0.00 0.00 43 1016.1
20260502121237 25 199 1.6 9.7 0.00 0.00 0.00 41 1016.3
20260502120216 26 160 3.2 8.0 0.00 0.00 0.00 38 1016.3
20260502115217 26 191 9.7 16.1 0.00 0.00 0.00 39 1016.4
20260502114217 25 232 3.2 9.7 0.00 0.00 0.00 41 1016.4
20260502113216 25 210 1.6 11.3 0.00 0.00 0.00 40 1016.4
20260502112217 26 245 3.2 6.4 0.00 0.00 0.00 38 1016.6
20260502111217 27 217 1.6 11.3 0.00 0.00 0.00 40 1016.6
20260502110216 26 309 1.6 6.4 0.00 0.00 0.00 40 1016.7
20260502105216 26 180 3.2 11.3 0.00 0.00 0.00 38 1016.7
20260502104217 26 165 3.2 6.4 0.00 0.00 0.00 38 1016.8
20260502103216 26 161 8.0 16.1 0.00 0.00 0.00 40 1017.0
20260502102217 26 172 3.2 9.7 0.00 0.00 0.00 40 1017.1
20260502101217 26 170 4.8 11.3 0.00 0.00 0.00 37 1017.2
20260502100216 26 180 4.8 14.5 0.00 0.00 0.00 40 1017.2
20260502091217 25 355 0.0 1.6 0.00 0.00 0.00 42 1017.5
20260502090217 23 270 1.6 4.8 0.00 0.00 0.00 44 1017.7
20260502071236 16 177 9.7 12.9 0.00 0.00 0.00 53 1018.0
20260502070216 15 175 4.8 11.3 0.00 0.00 0.00 55 1018.1
20260502065236 14 172 4.8 9.7 0.00 0.00 0.00 60 1018.1
20260502064216 13 172 4.8 9.7 0.00 0.00 0.00 62 1018.1
20260502063257 13 172 1.6 6.4 0.00 0.00 0.00 66 1018.1
20260502062216 12 0.0 0.0 0.00 0.00 0.00 70 1018.0
20260502061216 11 0.0 0.0 0.00 0.00 0.00 75 1018.0
20260502060236 11 0.0 0.0 0.00 0.00 0.00 77 1018.1
20260502055216 11 0.0 0.0 0.00 0.00 0.00 76 1018.0
20260502054216 11 0.0 0.0 0.00 0.00 0.00 76 1018.0
20260502053216 10 0.0 0.0 0.00 0.00 0.00 79 1017.9
20260502052216 10 0.0 0.0 0.00 0.00 0.00 81 1017.8
20260502051216 9 0.0 0.0 0.00 0.00 0.00 82 1017.6
20260502050216 8 0.0 0.0 0.00 0.00 0.00 83 1017.8
20260502045216 8 0.0 0.0 0.00 0.00 0.00 85 1017.7
20260502044216 7 0.0 0.0 0.00 0.00 0.00 86 1017.7
20260502043216 7 0.0 0.0 0.00 0.00 0.00 85 1017.7
20260502042216 6 0.0 0.0 0.00 0.00 0.00 85 1017.8
20260502041216 6 0.0 0.0 0.00 0.00 0.00 85 1017.8
20260502040216 6 0.0 0.0 0.00 0.00 0.00 85 1017.8
20260502035216 6 0.0 0.0 0.00 0.00 0.00 85 1017.8
20260502034236 6 0.0 0.0 0.00 0.00 0.00 85 1017.9
20260502033216 6 0.0 0.0 0.00 0.00 0.00 85 1018.1
20260502032216 6 0.0 0.0 0.00 0.00 0.00 85 1018.2
20260502031216 6 0.0 0.0 0.00 0.00 0.00 84 1018.1
20260502030216 6 0.0 0.0 0.00 0.00 0.00 84 1018.1
20260502025236 6 0.0 0.0 0.00 0.00 0.00 84 1018.0
20260502024236 6 0.0 0.0 0.00 0.00 0.00 84 1018.2
20260502023216 6 0.0 0.0 0.00 0.00 0.00 84 1018.3
20260502022216 6 0.0 0.0 0.00 0.00 0.00 83 1018.3
20260502021216 6 0.0 0.0 0.00 0.00 0.00 83 1018.3
20260502020235 6 0.0 0.0 0.00 0.00 0.00 82 1018.4
20260502015216 6 0.0 0.0 0.00 0.00 0.00 82 1018.5
20260502014216 6 0.0 0.0 0.00 0.00 0.00 82 1018.5
20260502013215 6 0.0 0.0 0.00 0.00 0.00 83 1018.6
20260502012216 6 0.0 0.0 0.00 0.00 0.00 83 1018.7
20260502011215 6 0.0 0.0 0.00 0.00 0.00 82 1018.8
20260502010216 6 0.0 0.0 0.00 0.00 0.00 81 1018.9
20260502005215 6 0.0 0.0 0.00 0.00 0.00 80 1019.0
20260502004215 6 0.0 0.0 0.00 0.00 0.00 79 1019.0
20260502003215 7 0.0 0.0 0.00 0.00 0.00 79 1019.0
20260502002256 7 0.0 0.0 0.00 0.00 0.00 80 1019.2
20260502001216 7 0.0 0.0 0.00 0.00 0.00 80 1019.3
20260502000215 7 0.0 0.0 0.00 0.00 0.00 80 1019.4
20260501235215 7 0.0 0.0 0.00 0.00 0.00 79 1019.5
20260501234215 7 0.0 0.0 0.00 0.00 0.00 78 1019.6
20260501233215 8 0.0 0.0 0.00 0.00 0.00 77 1019.6
20260501232215 8 0.0 0.0 0.00 0.00 0.00 76 1019.6